Location: Vale
(35.4830°N, 81.3830°W)
Time: 04:17:55
(UTC-04:00)

Cosmos 2237 Rocket - Visible Passes

Search period start: 28 July 2014 00:00
Search period end: 07 August 2014 00:00
Orbit: 833 x 852 km, 71.0° (Epoch: 26 July)

Date Brightness Start Highest point End Pass type
(mag) Time Alt. Az. Time Alt. Az. Time Alt. Az.
28 Jul 4.5 01:21:39 10° WNW 01:23:11 15° WNW 01:23:11 15° WNW visible
28 Jul 2.7 23:21:41 10° N 23:26:54 47° NE 23:26:54 47° NE visible
29 Jul 4.4 01:06:48 10° NW 01:08:44 17° WNW 01:08:44 17° WNW visible
29 Jul 2.7 23:06:58 10° N 23:12:26 45° ENE 23:12:28 45° ENE visible
30 Jul 4.3 00:51:57 10° NW 00:54:18 18° WNW 00:54:18 18° WNW visible
30 Jul 2.7 22:52:16 10° N 22:57:41 43° ENE 22:58:05 43° ENE visible
31 Jul 4.2 00:37:06 10° NW 00:39:55 20° W 00:39:55 20° W visible
31 Jul 2.8 22:37:33 10° N 22:42:56 41° ENE 22:43:44 39° E visible
01 Aug 4.0 00:22:16 10° NW 00:25:34 22° W 00:25:34 22° W visible
01 Aug 2.9 22:22:51 10° N 22:28:11 39° ENE 22:29:25 35° E visible
02 Aug 3.9 00:07:26 10° NW 00:11:15 24° W 00:11:15 24° W visible
02 Aug 2.9 22:08:09 10° N 22:13:25 37° ENE 22:15:08 31° E visible
02 Aug 3.8 23:52:37 10° NW 23:56:59 26° W 23:56:59 26° W visible
03 Aug 3.0 21:53:27 10° N 21:58:40 36° ENE 22:00:54 26° ESE visible
03 Aug 3.6 23:37:48 10° NW 23:42:31 27° WSW 23:42:45 27° WSW visible
04 Aug 3.1 21:38:46 10° N 21:43:55 34° ENE 21:46:43 22° ESE visible
04 Aug 3.6 23:23:00 10° NW 23:27:48 29° WSW 23:28:34 28° WSW visible
05 Aug 3.1 21:24:04 10° N 21:29:09 32° ENE 21:32:35 18° ESE visible
05 Aug 3.5 23:08:12 10° NW 23:13:05 30° WSW 23:14:26 27° SW visible
06 Aug 3.2 21:09:23 10° N 21:14:24 31° ENE 21:18:30 14° ESE visible
06 Aug 3.5 22:53:24 10° NW 22:58:22 32° WSW 23:00:22 25° SW visible
